Temperature
9 9 8 10 11 12 13 14 14 16 17 17 17 17 18 19 20 20 21 21 22 21 21 21 20 19 19 18 17 16 16 15 14 14 13 13 13 13 12 12 12 12 12 11
8 8 10 11 12 12 12 13 14 16 17 17 16 17 18 19 19 20 21 21 22 22 21 21 21 20 19 18 18 17 16 16 15 15 15 14 14 13 13 12 12 12 12 11
8 9 11 11 11 11 12 12 13 14 15 16 15 15 17 18 19 20 21 21 21 22 22 21 21 20 19 19 18 17 16 16 16 15 14 13 12 12 12 12 12 12 12 11
8 10 11 10 11 11 11 13 14 14 13 13 14 13 16 18 18 19 20 21 21 21 22 21 21 20 20 19 19 18 17 16 16 15 14 14 13 13 14 14 13 12 12 11
8 10 10 10 11 11 11 13 13 13 13 12 13 13 15 18 18 18 19 20 21 21 21 21 21 21 20 19 19 18 17 16 16 15 15 14 14 14 14 13 13 12 12 11
8 10 10 10 11 12 12 12 12 12 11 11 12 12 13 17 18 19 19 20 21 21 21 21 21 21 20 19 19 18 17 16 16 15 15 14 14 14 13 13 13 12 12 12
7 9 10 11 10 10 10 9 9 9 9 10 13 13 14 17 19 19 19 20 21 21 21 21 21 20 20 19 19 18 17 16 16 15 15 15 14 14 14 14 14 13 12 12
6 7 9 10 10 9 9 9 9 10 10 11 13 13 15 17 18 20 20 21 21 21 21 20 20 20 20 19 19 18 17 17 16 15 15 15 14 14 14 13 13 13 13 13
5 6 9 10 10 10 9 9 10 10 11 11 13 14 16 17 18 18 18 19 20 20 20 20 20 20 19 19 19 18 18 17 16 16 15 15 14 14 13 13 13 13 13 13
5 5 7 9 9 10 9 9 9 9 10 11 12 14 15 16 17 17 17 17 19 19 19 19 19 19 19 19 18 18 17 17 16 16 15 15 14 14 14 13 12 12 12 12
4 4 6 8 8 8 8 8 8 8 9 10 12 14 17 17 17 17 17 18 18 18 19 19 19 19 19 18 18 18 17 17 16 16 15 14 14 14 13 13 12 12 12 12
4 4 5 6 8 8 8 8 8 8 9 10 12 14 17 17 17 17 17 18 18 18 18 18 18 18 18 18 18 17 17 16 16 16 15 14 14 13 13 12 12 12 12 12
4 4 4 5 6 7 7 8 8 8 9 10 11 13 15 15 16 16 16 17 17 17 17 17 17 17 17 17 17 17 17 16 16 15 15 14 14 13 13 12 12 12 12 12
5 3 4 4 5 5 5 7 7 8 8 9 10 12 14 15 15 15 15 16 16 17 17 16 16 16 16 16 16 16 16 16 16 15 15 14 14 13 13 12 12 12 12 11
3 3 4 5 6 6 6 6 7 7 8 8 10 12 13 14 14 14 15 15 15 15 15 16 15 15 15 15 15 15 16 16 15 15 15 14 14 13 13 12 12 12 12 11
2 2 3 4 6 6 6 7 7 8 8 9 10 11 13 14 14 14 14 14 14 14 15 15 15 15 15 15 15 15 15 15 15 15 14 14 13 13 13 12 12 12 12 11
2 2 2 3 5 6 6 7 8 8 9 10 10 11 12 13 13 13 13 14 14 13 14 14 14 14 14 14 14 14 14 15 14 14 14 14 13 13 13 12 12 12 12 11
2 1 2 3 4 4 6 8 8 9 9 9 10 10 11 12 12 13 13 13 13 13 13 13 13 14 14 14 14 14 14 14 14 14 14 13 13 13 13 12 12 12 11 11
3 2 2 2 3 5 7 8 8 8 8 8 9 9 10 11 12 12 12 12 12 12 13 13 13 14 14 14 14 14 13 13 13 13 14 13 13 13 12 12 12 11 11 10
4 3 2 2 3 4 6 7 8 8 7 7 8 8 8 9 9 10 11 11 11 12 12 13 13 13 13 13 13 13 13 13 13 13 13 13 13 13 12 12 12 11 10 10
2 2 2 2 2 4 6 7 7 6 6 7 7 7 7 7 8 9 9 10 10 11 12 12 12 12 13 13 13 13 13 13 13 13 13 12 12 12 12 12 11 10 10 9
2 2 2 2 2 3 6 6 5 5 6 7 7 7 7 7 8 8 9 9 9 10 11 11 11 11 11 12 12 12 12 12 12 12 12 12 12 12 11 11 11 10 9 9
3 3 3 3 4 5 6 6 6 6 6 6 6 6 6 7 7 7 8 8 8 9 10 10 10 10 11 11 11 11 12 12 12 12 11 12 11 11 11 10 10 9 9 8
3 4 3 3 4 5 6 6 6 6 6 6 6 6 6 6 6 6 7 7 7 8 8 9 9 9 10 10 10 11 11 11 11 11 11 11 11 10 10 10 9 9 9 9
2 2 2 2 4 5 6 6 6 6 5 5 5 5 5 5 5 6 6 6 7 7 7 8 8 9 9 9 10 10 10 10 10 10 10 10 10 10 9 9 9 9 9 9
2 2 2 2 4 4 4 5 5 5 5 4 4 4 4 5 5 5 5 6 6 6 7 7 8 8 8 9 9 9 10 10 10 10 10 10 9 9 9 8 8 7 8 7
Wind_Speed
9 11 16 20 22 19 17 18 19 18 14 17 20 20 17 15 13 14 15 15 15 15 15 15 16 16 15 16 17 18 18 16 14 12 12 11 10 9 8 7 11 14 14 15
10 18 21 19 20 21 21 20 19 14 12 13 15 19 17 17 17 14 14 15 15 14 14 16 16 16 17 17 18 18 19 18 16 13 12 10 9 8 7 7 9 13 14 15
18 15 17 19 20 21 22 21 18 14 9 9 10 15 18 15 17 16 15 14 14 15 15 15 16 17 16 17 19 18 19 18 18 14 11 9 8 7 7 9 9 10 13 14
15 17 18 18 20 19 20 20 18 16 11 8 9 10 15 16 18 19 18 16 15 15 14 14 16 17 18 17 17 17 18 18 18 17 15 15 13 12 11 10 9 9 12 13
11 13 17 20 20 19 15 13 15 15 12 11 12 10 9 15 19 21 19 18 16 15 14 14 15 16 16 16 16 17 17 17 17 18 17 17 13 11 8 9 11 11 10 12
16 13 12 15 16 16 12 11 10 9 9 15 18 13 9 13 18 18 18 18 18 16 14 13 13 14 13 14 15 16 16 16 17 18 18 18 16 14 12 12 13 12 9 10
11 15 13 11 12 12 12 8 7 9 11 12 14 13 10 10 12 15 17 17 17 16 15 14 13 14 15 16 17 17 17 16 17 18 18 18 17 16 15 14 13 12 10 10
7 10 11 9 13 10 15 14 9 7 9 8 13 13 9 12 10 9 10 12 13 15 14 14 14 14 15 17 18 18 19 17 18 19 18 17 16 13 12 13 11 12 11 11
4 8 8 10 10 12 11 15 11 6 6 5 8 9 9 11 11 9 9 9 11 13 14 13 13 14 15 16 18 19 19 17 17 18 18 16 16 15 13 12 11 10 9 10
4 7 8 9 8 11 10 8 7 7 6 7 8 13 10 13 14 14 13 12 11 10 11 12 12 13 14 15 15 16 17 17 15 17 17 15 15 15 13 12 12 11 11 11
4 5 6 6 10 11 8 10 7 6 6 5 5 6 9 12 12 12 11 10 11 10 10 10 10 10 12 13 14 15 16 15 15 16 15 14 14 14 13 12 12 11 11 12
4 4 5 8 7 7 9 9 9 7 7 5 4 4 2 5 6 7 8 7 8 8 7 8 9 9 10 11 13 14 14 15 15 15 14 14 13 13 13 12 12 11 11 11
5 3 4 4 3 3 6 8 10 8 5 6 7 6 7 4 1 2 3 5 5 7 7 6 7 8 9 10 10 11 13 13 13 13 14 14 14 13 13 12 11 11 11 10
6 4 5 6 5 4 7 10 11 10 7 8 11 10 8 5 1 1 2 2 4 5 7 7 7 7 8 9 9 10 10 11 12 13 13 14 14 14 13 12 11 11 10 10
4 5 8 12 11 9 11 13 14 14 13 10 12 14 12 8 3 2 2 1 3 4 6 7 7 7 7 8 8 9 9 10 10 12 12 13 12 12 11 11 11 10 10 10
3 5 8 11 10 9 12 14 16 17 17 17 16 14 8 6 2 1 2 2 2 3 4 5 6 7 8 9 9 9 9 9 10 11 11 11 11 12 12 11 11 10 10 10
3 4 5 7 9 8 10 11 13 13 14 14 16 13 7 5 4 1 2 3 2 2 3 5 6 7 8 9 10 10 10 9 10 10 11 11 12 12 12 11 11 11 11 10
8 6 4 6 6 8 6 4 6 9 9 8 10 8 7 6 5 3 1 1 1 1 2 3 4 4 5 7 8 8 9 10 10 10 11 11 12 12 11 12 12 11 9 10
12 8 5 4 6 8 6 4 5 7 7 6 7 7 7 8 5 3 3 4 2 2 3 3 3 3 3 6 9 10 10 10 10 11 11 12 12 12 12 12 11 9 9 9
8 8 6 5 5 6 3 6 6 5 6 5 5 5 7 5 3 5 7 6 5 4 2 0 2 2 3 5 8 10 10 11 11 11 11 11 12 13 13 12 11 9 9 9
4 6 9 9 7 6 5 6 4 2 3 6 5 5 5 4 5 7 8 7 5 5 4 2 1 3 3 5 7 9 10 11 10 9 9 10 11 11 11 10 9 10 10 9
6 5 6 6 7 6 3 3 0 3 5 6 6 6 7 8 8 7 7 6 5 5 4 2 0 1 3 5 7 8 9 8 9 10 10 10 10 10 10 11 10 10 11 10
6 6 4 5 6 6 5 4 4 4 6 6 6 8 8 8 8 8 8 6 5 5 4 2 1 1 3 5 7 8 7 8 10 11 10 10 10 9 10 12 12 11 10 9
6 5 6 7 8 9 8 6 5 6 7 7 7 8 8 8 9 8 8 6 6 5 4 2 2 3 4 4 5 6 7 9 11 11 11 10 11 10 9 8 9 10 10 10
8 6 7 10 10 9 8 6 6 7 7 9 9 8 8 9 9 9 8 7 6 6 4 3 4 5 5 5 5 6 8 10 11 11 11 11 10 10 9 7 6 7 7 10
11 10 10 10 9 8 10 9 10 9 9 9 9 10 10 9 9 9 8 7 6 6 5 4 5 5 5 5 5 7 8 10 12 11 11 10 9 9 9 9 7 8 7 10
Wind_Direction
218 216 220 218 221 231 237 234 234 235 224 224 230 234 231 231 228 221 219 219 217 208 196 190 185 181 178 176 176 176 177 180 176 178 179 181 184 181 179 178 180 180 180 178
231 230 231 232 231 236 242 245 245 249 231 229 239 239 233 230 228 223 221 220 217 211 199 191 185 182 181 180 179 178 180 181 181 183 182 182 178 179 179 178 185 186 184 182
232 236 231 231 231 231 236 238 241 244 250 248 256 253 238 230 228 225 223 221 219 211 203 193 187 185 183 183 182 183 182 182 182 177 172 171 169 173 181 188 192 191 190 187
242 240 235 233 233 230 235 235 242 242 237 237 220 246 234 222 223 224 221 219 219 217 207 197 190 186 185 185 182 181 181 181 181 177 178 179 184 189 193 188 188 188 192 190
241 237 230 233 232 232 242 242 242 242 238 245 235 245 244 217 219 220 217 215 214 214 208 200 192 187 183 179 178 180 180 181 180 180 183 185 191 192 183 181 185 191 194 195
254 248 236 235 235 231 243 245 248 245 236 238 228 229 246 220 218 215 213 212 209 209 206 201 192 181 179 175 174 177 179 182 181 183 186 189 191 187 183 186 189 192 194 196
255 246 238 234 231 226 220 211 209 208 216 231 213 220 237 228 222 214 210 208 203 201 199 197 191 184 181 177 177 179 180 184 183 185 190 193 193 191 191 189 189 188 191 196
242 246 233 226 221 216 214 209 214 206 207 220 202 219 227 221 234 225 211 202 197 194 195 195 192 185 182 179 179 180 183 186 185 188 193 193 193 194 195 192 189 191 193 195
256 251 246 239 232 216 210 216 232 259 257 234 209 220 226 212 216 220 213 206 201 199 196 195 192 186 181 179 181 183 184 186 188 189 191 193 193 194 194 190 187 189 188 186
273 272 260 247 238 224 216 205 211 220 226 230 224 219 214 199 205 209 210 207 206 197 194 193 190 185 181 180 178 180 184 187 186 188 190 194 194 194 192 188 190 186 184 182
292 268 273 238 219 214 205 205 213 210 235 220 223 232 207 195 199 202 204 202 201 199 194 189 186 180 174 171 173 178 182 184 186 188 188 188 190 189 189 190 189 185 182 182
282 274 268 256 241 227 216 206 204 212 226 235 244 262 289 179 181 189 199 199 196 190 185 177 171 163 160 165 171 177 180 183 185 185 183 185 184 183 187 189 186 182 181 181
299 284 290 275 218 222 225 217 218 230 248 241 235 245 299 354 62 140 178 198 190 174 165 158 157 159 161 163 168 175 181 181 178 177 179 179 181 182 185 184 181 179 178 176
312 261 249 264 278 263 257 251 235 224 229 244 241 256 281 302 286 158 181 191 171 160 160 160 162 163 164 166 169 171 175 174 170 171 174 178 181 182 180 178 177 178 175 173
328 274 273 279 278 263 253 249 242 236 231 235 250 254 261 270 258 189 173 160 143 151 159 165 168 167 166 167 169 169 169 167 166 169 173 177 175 171 170 171 172 172 171 170
312 283 291 280 275 271 267 249 238 237 235 239 256 264 265 271 277 158 162 167 169 172 178 177 172 171 173 174 172 168 168 166 164 169 173 169 166 166 167 168 166 164 165 165
259 273 286 275 283 287 260 241 230 230 232 234 245 257 285 296 306 262 193 193 189 201 199 194 188 182 180 178 172 171 167 161 164 168 168 166 165 166 165 162 162 166 167 163
233 253 261 276 279 242 249 268 241 234 240 248 255 272 290 292 292 294 6 9 254 221 222 207 193 187 178 168 162 159 157 160 163 166 167 166 165 164 160 160 165 165 161 163
217 221 240 253 261 268 267 262 250 241 251 277 277 285 310 314 305 285 351 342 317 284 240 207 195 184 166 162 157 153 158 161 164 170 171 169 165 162 161 164 164 158 155 157
206 204 224 242 254 252 300 325 309 246 249 317 306 310 321 333 288 295 332 331 329 332 335 189 145 139 149 159 153 157 166 167 173 174 171 166 163 163 164 163 156 149 149 150
223 212 220 234 246 267 308 323 346 210 291 330 324 324 322 296 282 307 322 326 328 329 336 354 135 156 169 158 156 166 171 178 174 163 161 160 160 161 158 151 147 146 144 144
234 227 219 223 230 245 327 359 330 313 331 333 338 332 320 311 309 310 313 318 324 330 335 340 324 173 164 161 163 175 183 174 157 153 154 155 155 152 150 147 147 148 148 148
229 229 233 227 246 283 303 295 296 315 322 326 331 326 326 321 315 312 308 308 306 305 299 285 238 199 177 173 174 183 180 158 151 151 153 152 148 147 149 151 152 152 154 155
263 262 264 266 269 285 288 302 310 320 318 320 319 317 317 313 310 306 303 298 293 291 285 269 238 207 202 195 192 185 166 155 154 155 154 150 149 147 147 150 155 158 162 161
267 278 271 271 278 288 283 293 302 305 315 318 317 313 309 305 303 302 300 294 288 283 274 250 224 218 212 198 191 174 162 156 157 156 153 150 150 148 146 142 148 156 164 167
248 250 255 262 274 280 290 305 309 310 308 307 306 306 303 294 290 293 292 289 282 275 270 251 232 222 211 192 185 174 167 162 159 158 156 154 152 149 145 137 115 95 120 132
Height
1428 1431 1428 1425 1425 1424 1421 1420 1419 1416 1414 1418 1418 1418 1418 1418 1419 1421 1423 1426 1429 1432 1437 1441 1446 1450 1455 1460 1464 1468 1472 1477 1482 1485 1489 1493 1497 1501 1505 1508 1511 1514 1517 1520
1426 1423 1419 1419 1420 1421 1420 1420 1417 1413 1410 1413 1415 1413 1411 1411 1412 1414 1417 1419 1422 1426 1430 1434 1439 1444 1448 1453 1457 1462 1466 1470 1475 1478 1483 1487 1492 1496 1500 1504 1507 1510 1513 1516
1417 1413 1414 1415 1416 1418 1417 1418 1416 1415 1412 1410 1415 1413 1407 1403 1405 1407 1410 1412 1416 1419 1422 1427 1432 1436 1441 1446 1450 1455 1459 1464 1469 1473 1479 1484 1489 1493 1496 1498 1502 1505 1508 1511
1411 1409 1409 1410 1410 1413 1414 1411 1412 1413 1417 1417 1417 1419 1403 1397 1398 1399 1401 1405 1408 1412 1416 1420 1424 1429 1433 1438 1444 1449 1453 1458 1463 1468 1472 1476 1479 1482 1486 1491 1495 1500 1503 1506
1405 1402 1403 1405 1405 1408 1408 1408 1410 1411 1414 1417 1414 1416 1400 1389 1391 1390 1392 1396 1400 1404 1408 1412 1416 1421 1426 1432 1437 1442 1447 1452 1457 1461 1465 1470 1473 1477 1482 1487 1490 1494 1498 1501
1401 1399 1400 1399 1400 1403 1406 1409 1410 1410 1415 1417 1408 1412 1399 1384 1380 1381 1383 1387 1391 1397 1401 1405 1410 1415 1420 1425 1430 1435 1441 1445 1450 1455 1459 1463 1467 1472 1476 1480 1484 1488 1491 1495
1400 1395 1394 1395 1398 1401 1404 1412 1416 1415 1414 1407 1396 1401 1390 1373 1369 1370 1374 1378 1383 1388 1393 1398 1403 1407 1412 1417 1422 1428 1433 1438 1443 1448 1453 1457 1462 1466 1470 1474 1478 1481 1485 1488
1403 1396 1390 1390 1393 1396 1398 1405 1407 1404 1401 1394 1388 1388 1375 1366 1364 1364 1367 1370 1375 1380 1385 1390 1395 1400 1405 1410 1415 1420 1425 1431 1437 1441 1446 1451 1456 1461 1465 1469 1472 1476 1479 1482
1404 1395 1386 1387 1387 1391 1394 1397 1395 1397 1390 1389 1381 1372 1364 1359 1361 1362 1363 1366 1369 1374 1379 1384 1389 1394 1398 1403 1407 1413 1418 1424 1430 1435 1440 1445 1450 1454 1459 1463 1467 1471 1474 1478
1405 1400 1388 1384 1385 1385 1388 1390 1395 1399 1394 1389 1377 1368 1363 1357 1357 1357 1359 1361 1364 1368 1373 1377 1382 1387 1391 1396 1402 1407 1412 1417 1423 1428 1433 1438 1443 1448 1453 1458 1461 1465 1469 1473
1405 1403 1391 1385 1383 1383 1387 1390 1391 1392 1389 1385 1379 1365 1345 1346 1348 1350 1353 1355 1359 1363 1367 1372 1377 1381 1386 1391 1396 1401 1406 1412 1417 1422 1428 1433 1438 1443 1448 1452 1456 1460 1464 1467
1404 1402 1395 1386 1381 1381 1382 1384 1389 1392 1386 1377 1372 1363 1337 1339 1342 1345 1349 1352 1356 1360 1364 1368 1372 1376 1381 1385 1390 1395 1400 1405 1411 1416 1422 1427 1432 1437 1442 1446 1451 1455 1459 1463
1404 1403 1399 1387 1385 1384 1383 1383 1385 1386 1383 1377 1374 1364 1341 1341 1342 1345 1348 1351 1353 1357 1361 1364 1368 1372 1376 1381 1385 1390 1395 1400 1406 1411 1417 1422 1427 1431 1436 1441 1446 1450 1454 1458
1402 1402 1402 1396 1390 1389 1387 1384 1383 1384 1383 1379 1370 1361 1351 1346 1345 1346 1349 1350 1352 1355 1358 1361 1365 1369 1373 1377 1381 1385 1390 1395 1401 1406 1411 1416 1421 1426 1431 1436 1440 1445 1449 1452
1404 1402 1396 1390 1385 1384 1382 1381 1380 1380 1378 1377 1366 1360 1354 1350 1347 1347 1349 1351 1352 1354 1357 1359 1362 1366 1370 1373 1377 1381 1386 1391 1396 1401 1406 1411 1416 1421 1426 1431 1435 1440 1444 1448
1405 1404 1397 1389 1381 1378 1376 1372 1372 1371 1370 1369 1364 1359 1351 1348 1348 1349 1350 1351 1352 1354 1356 1358 1361 1364 1367 1370 1374 1378 1382 1386 1391 1396 1401 1406 1411 1417 1421 1426 1431 1435 1439 1443
1405 1404 1400 1390 1380 1377 1373 1363 1362 1362 1360 1361 1360 1356 1351 1350 1349 1349 1350 1351 1352 1354 1356 1357 1359 1362 1364 1368 1371 1374 1379 1383 1387 1392 1397 1402 1407 1411 1416 1421 1426 1430 1434 1438
1402 1403 1400 1392 1384 1383 1365 1356 1356 1356 1356 1356 1355 1353 1352 1350 1349 1350 1350 1351 1352 1353 1354 1355 1357 1360 1363 1366 1369 1372 1376 1380 1384 1388 1393 1397 1402 1407 1412 1417 1421 1425 1429 1433
1391 1396 1397 1392 1384 1372 1359 1356 1356 1356 1355 1356 1354 1352 1351 1348 1346 1348 1350 1351 1351 1352 1352 1354 1355 1357 1360 1363 1366 1369 1373 1377 1380 1384 1388 1393 1397 1402 1407 1411 1416 1420 1424 1428
1384 1388 1394 1390 1385 1372 1361 1355 1352 1354 1356 1356 1353 1352 1352 1349 1351 1349 1349 1350 1349 1349 1350 1351 1353 1354 1357 1360 1363 1366 1369 1373 1376 1380 1384 1389 1394 1398 1402 1407 1411 1416 1420 1424
1385 1386 1388 1386 1382 1368 1360 1356 1353 1361 1361 1356 1353 1352 1353 1352 1352 1351 1349 1349 1348 1348 1348 1349 1350 1352 1354 1356 1360 1363 1366 1369 1373 1377 1381 1385 1390 1394 1399 1403 1407 1412 1416 1420
1382 1382 1381 1379 1377 1371 1358 1356 1360 1360 1357 1355 1353 1352 1351 1351 1349 1349 1348 1347 1346 1345 1346 1347 1348 1349 1351 1353 1356 1359 1362 1366 1370 1374 1378 1382 1386 1391 1395 1399 1403 1408 1412 1416
1375 1375 1374 1373 1368 1359 1357 1357 1357 1356 1356 1354 1353 1351 1350 1348 1347 1346 1345 1344 1343 1343 1343 1344 1345 1346 1348 1351 1353 1355 1358 1362 1366 1369 1373 1378 1382 1387 1391 1395 1399 1403 1408 1411
1370 1368 1368 1365 1359 1356 1355 1355 1354 1354 1353 1352 1351 1349 1348 1346 1344 1343 1342 1341 1340 1340 1340 1341 1342 1343 1344 1347 1349 1352 1355 1358 1361 1365 1369 1374 1378 1383 1387 1392 1396 1399 1403 1406
1369 1368 1366 1363 1358 1354 1352 1352 1352 1351 1350 1348 1347 1346 1345 1344 1341 1340 1338 1337 1337 1337 1337 1337 1338 1339 1340 1342 1345 1347 1350 1354 1357 1361 1365 1370 1374 1378 1383 1387 1392 1396 1400 1403
1363 1363 1362 1358 1354 1354 1351 1350 1350 1348 1347 1345 1344 1342 1340 1340 1337 1336 1334 1333 1333 1332 1332 1332 1333 1334 1336 1338 1340 1343 1346 1349 1352 1356 1360 1365 1369 1374 1378 1382 1388 1393 1397 1401